星链-30075 (STARLINK-30075 )

导读

STARLINK-30075是美国SpaceX星链互联网卫星星座的一员,于2023年8月11日发射入轨,属于星链低轨卫星组网的补充发射任务。星链系统旨在为全球提供高速宽带互联网服务,该卫星延续了星链批量生产、部署的模式,依托猎鹰九号火箭执行发射任务,服役后将参与星座运营,提升全球覆盖容量与服务稳定性。

基本信息
目录编号:
57616
目录名称:
STARLINK-30075
国际标识:
2023-119Q
轨道中心:
EARTH
卫星名称:
星链-30075
卫星全名:
星链-30075 (STARLINK-30075 )
卫星状态:
在轨 (已飞行1042 天)
发射日期:
2023-08-11 UTC
国别 :
美国 (US)
星等 :
--
轨道信息
数据来源 国际轨道数据 AOE轨道数据
星历时间 2026-06-17T05:33:30+0800
1天前
查看轨道信息
2026-06-15T07:00:00+0800
3天前
查看轨道信息
半长轴 6861.178km 6861.18km
偏心率 0.0001363 0.0001348
轨道倾角 43.001° 43.000°
近地点辐角 271.732° 246.303°
升交点赤经 240.914° 251.875°
平近点角 88.338° 232.979°
近地点 482.105km 482.118km
远地点 483.977km 483.968km
周期 94.267分钟 94.267分钟
每日圈数 15.275829 15.275823
详细信息
固有亮度:
5
最大亮度:
0.3
卫星平台:
Starlink v2.0 mini
覆盖范围:
全球
运营商:
太空探索技术公司
运营商所在国:
美国
制造商(研发单位):
太空探索技术公司
制造商所在国:
美国
使用方式:
暂无
卫星简介
星链(Starlink)计划是由太空探索技术公司(SpaceX)提出的一个巨型低轨卫星互联网星座项目,计划在2019年至2024年间在太空搭建由约1.2万颗卫星组成的“星链”网络,其中1584颗将部署在地球上空550千米处的近地轨道,并从2020年开始工作。该卫星仍在工作。
2D轨道图
3D轨道图
轨道高度分析图
轨道倾角分析图
轨道综合分析图
查看轨道综合分析图